Location: USNO
(38.9242°N, 77.0663°W)
Time: 02:09:58
(UTC-04:00)

Tiangong 2 - Pass Details

Date: 14 October 2017
Orbit: 388 x 391 km, 42.8° (Epoch: 22 October)

Event Time Altitude Azimuth Distance (km) Brightness Sun altitude
Exits shadow 04:58:30 17° 60° (ENE) 1,059 4.0 -27.6°
Drops below altitude 10° 04:59:26 10° 66° (ENE) 1,421 4.9 -27.4°
Sets 05:01:33 0° 71° (ENE) 2,278 6.3 -27.0°
